JO1YDG-13 Weather Reports


Display with metric or nautical units.
time (UTC)temp
F
wind
direction
speed
MPH
gust
MPH
rain 1hr
in
rain 24hr
in
rain mn
in
humidity
%
barometer
mb
20260504151116 59 30 9.0 9.0 0.00 0.59 0.00 39 981.8
20260504150616 60 279 7.0 6.0 0.00 0.60 0.00 39 981.8
20260504150116 59 333 8.0 20.0 0.00 0.60 0.00 39 981.4
20260504141115 60 346 12.0 13.0 0.00 0.60 0.60 40 980.4
20260504140615 60 6 5.0 6.0 0.00 0.61 0.60 40 980.4
20260504140116 60 3 5.0 8.0 0.00 0.61 0.60 40 980.1
20260504130615 61 7 3.0 2.0 0.00 0.61 0.60 40 979.0
20260504130117 61 272 6.0 7.0 0.00 0.61 0.60 39 978.7
20260504120115 62 308 7.0 9.0 0.00 0.61 0.60 39 977.2
20260504110616 64 356 9.0 10.0 0.00 0.61 0.60 36 975.8
20260504110115 64 20 7.0 7.0 0.00 0.61 0.60 36 975.3
20260504100116 65 326 16.0 21.0 0.00 0.61 0.60 39 973.9
20260504090116 68 357 15.0 20.0 0.00 0.61 0.60 39 972.0
20260504081616 72 0 17.0 20.0 0.00 0.61 0.60 37 971.0
20260504081116 73 0 17.0 22.0 0.00 0.61 0.60 37 970.6
20260504080615 74 328 16.0 18.0 0.00 0.61 0.60 36 970.6
20260504080116 76 338 14.0 16.0 0.00 0.61 0.60 34 970.6
20260504070116 83 227 7.0 8.0 0.00 0.61 0.60 24 968.8
20260504060116 84 76 6.0 6.0 0.00 0.61 0.60 19 967.7
20260504050615 85 201 9.0 12.0 0.00 0.61 0.60 22 967.3
20260504050115 86 270 7.0 9.0 0.00 0.61 0.60 21 967.5
20260504045617 85 345 7.0 9.0 0.00 0.61 0.60 22 967.5
20260504045117 87 97 7.0 9.0 0.00 0.61 0.60 21 967.5
20260504044617 86 270 6.0 6.0 0.00 0.61 0.60 21 967.3
20260504044117 85 240 9.0 9.0 0.00 0.61 0.60 21 967.3
20260504043616 86 202 13.0 15.0 0.00 0.61 0.60 22 967.3
20260504043116 86 180 14.0 16.0 0.00 0.61 0.60 22 967.3
20260504042616 86 163 7.0 13.0 0.00 0.61 0.60 23 967.4
20260504042116 86 229 7.0 10.0 0.00 0.61 0.60 23 967.4
20260504041616 86 263 6.0 10.0 0.00 0.61 0.60 24 967.4
20260504041116 85 224 9.0 13.0 0.00 0.61 0.60 24 967.1
20260504040615 87 205 8.0 8.0 0.00 0.61 0.60 25 967.1
20260504040115 86 225 10.0 14.0 0.00 0.61 0.60 24 967.0
20260504035615 86 180 9.0 16.0 0.00 0.61 0.60 23 967.0
20260504035117 86 180 8.0 10.0 0.00 0.61 0.60 23 967.0
20260504034617 86 145 10.0 15.0 0.00 0.61 0.60 24 967.0
20260504034116 87 184 8.0 10.0 0.00 0.61 0.60 25 967.0
20260504033615 87 202 7.0 10.0 0.00 0.61 0.60 25 967.2
20260504033117 86 176 9.0 10.0 0.00 0.61 0.60 28 967.2
20260504032617 87 163 8.0 10.0 0.00 0.61 0.60 28 967.4
20260504032116 86 224 10.0 10.0 0.00 0.61 0.60 26 967.4
20260504031616 87 202 12.0 14.0 0.00 0.61 0.60 28 967.4
20260504031116 86 184 6.0 6.0 0.00 0.61 0.60 28 967.5
20260504030616 86 208 9.0 10.0 0.00 0.61 0.60 30 967.5
20260504030116 85 191 12.0 12.0 0.00 0.61 0.60 28 967.7
20260504025616 86 224 9.0 9.0 0.00 0.61 0.60 29 967.7
20260504025115 85 180 7.0 6.0 0.00 0.61 0.60 29 967.7
20260504024615 85 204 10.0 10.0 0.00 0.61 0.60 30 967.8
20260504024115 85 182 15.0 16.0 0.00 0.61 0.60 32 967.8
20260504023616 85 225 16.0 18.0 0.00 0.61 0.60 33 968.1
20260504023116 86 208 7.0 12.0 0.00 0.61 0.60 35 968.1
20260504022616 86 178 7.0 13.0 0.00 0.61 0.60 35 968.0
20260504022115 85 171 9.0 14.0 0.00 0.61 0.60 35 968.0
20260504021615 84 211 8.0 9.0 0.00 0.61 0.60 36 968.0
20260504021117 85 188 9.0 12.0 0.00 0.61 0.60 36 968.3
20260504020617 85 188 8.0 12.0 0.00 0.61 0.60 36 968.3
20260504020117 85 243 6.0 8.0 0.00 0.61 0.60 38 968.4
20260504015616 84 48 5.0 6.0 0.00 0.61 0.60 43 968.4
20260504015116 82 213 3.0 6.0 0.00 0.61 0.60 55 968.4
20260504014616 82 112 3.0 5.0 0.00 0.61 0.60 57 968.4
20260504014116 81 322 2.0 3.0 0.00 0.61 0.60 60 968.4
20260504013615 80 127 5.0 7.0 0.00 0.61 0.60 60 968.9
20260504013116 79 347 5.0 3.0 0.00 0.61 0.60 63 968.9
20260504012616 79 83 3.0 3.0 0.00 0.61 0.60 65 969.3
20260504012116 78 8 3.0 7.0 0.00 0.61 0.60 67 969.3
20260504011616 78 38 3.0 6.0 0.00 0.61 0.60 66 969.3
20260504011115 77 22 3.0 3.0 0.00 0.61 0.60 66 969.4
20260504010615 76 343 5.0 6.0 0.00 0.61 0.60 70 969.4
20260504010115 75 329 5.0 5.0 0.00 0.61 0.60 71 969.4
20260504005616 76 349 5.0 6.0 0.00 0.61 0.60 70 969.4
20260504005116 75 126 3.0 3.0 0.00 0.61 0.60 72 969.4
20260504004615 74 295 3.0 3.0 0.00 0.61 0.60 72 969.5
20260504004115 73 331 3.0 5.0 0.00 0.61 0.60 73 969.5
20260504003615 74 83 3.0 5.0 0.00 0.61 0.60 73 970.2
20260504003116 73 68 3.0 5.0 0.00 0.61 0.60 74 970.2
20260504002616 73 357 3.0 5.0 0.00 0.61 0.60 75 970.4
20260504002117 73 87 5.0 6.0 0.00 0.61 0.60 76 970.4
20260504001616 70 329 5.0 6.0 0.00 0.61 0.60 80 970.4
20260504001116 71 203 1.0 1.0 0.01 0.61 0.60 78 970.4
20260504000617 71 322 3.0 3.0 0.01 0.61 0.60 78 970.4
20260504000117 71 341 2.0 5.0 0.01 0.61 0.60 79 970.5
20260503235617 71 324 3.0 6.0 0.01 0.61 0.60 79 970.5
20260503235116 70 138 2.0 1.0 0.01 0.61 0.60 80 970.5
20260503234616 69 86 2.0 2.0 0.01 0.61 0.60 81 970.6
20260503234116 68 240 1.0 2.0 0.01 0.61 0.60 83 970.6
20260503233616 68 180 1.0 2.0 0.01 0.61 0.60 85 970.6
20260503233117 67 328 2.0 2.0 0.01 0.61 0.60 86 970.6
20260503232617 66 284 1.0 2.0 0.01 0.61 0.60 87 970.7
20260503232115 66 269 1.0 1.0 0.01 0.61 0.60 88 970.7
20260503231615 66 193 2.0 3.0 0.01 0.61 0.60 89 970.7
20260503231115 66 202 2.0 2.0 0.01 0.60 0.59 88 970.6
20260503230617 66 276 0.0 1.0 0.01 0.60 0.59 87 970.6
20260503230117 65 230 0.0 0.0 0.01 0.60 0.59 89 970.4
20260503225616 65 134 2.0 2.0 0.01 0.60 0.59 91 970.4
20260503225116 65 67 0.0 0.0 0.01 0.60 0.59 90 970.4
20260503224616 64 180 2.0 2.0 0.02 0.60 0.59 91 970.4
20260503224116 65 90 2.0 2.0 0.03 0.60 0.59 92 970.4
20260503223616 64 202 2.0 1.0 0.04 0.60 0.59 92 970.3
20260503223116 64 110 2.0 2.0 0.05 0.60 0.59 93 970.3
20260503222615 64 113 2.0 2.0 0.05 0.60 0.59 93 970.3
20260503222115 64 112 2.0 1.0 0.05 0.60 0.59 94 970.3
20260503221616 63 110 0.0 0.0 0.05 0.60 0.59 95 970.3
20260503221116 63 94 2.0 2.0 0.04 0.59 0.58 95 970.1
20260503220616 63 173 2.0 2.0 0.04 0.59 0.58 95 970.1
20260503220115 63 145 2.0 2.0 0.04 0.59 0.58 95 970.0
20260503215615 63 117 1.0 2.0 0.04 0.59 0.58 97 970.0
20260503215116 62 213 0.0 0.0 0.04 0.59 0.58 96 970.0
20260503214616 62 206 1.0 1.0 0.03 0.58 0.57 97 969.9
20260503214116 62 157 2.0 2.0 0.02 0.57 0.56 97 969.9
20260503213615 62 122 2.0 2.0 0.01 0.56 0.55 97 970.0
20260503213115 62 197 2.0 2.0 0.00 0.55 0.54 97 970.0
20260503212615 62 116 2.0 2.0 0.00 0.55 0.54 98 969.8
20260503212117 62 185 2.0 3.0 0.00 0.55 0.54 98 969.8
20260503211617 62 198 2.0 2.0 0.01 0.55 0.54 99 969.8
20260503211117 61 195 1.0 1.0 0.01 0.55 0.54 99 969.7
20260503210616 61 116 1.0 2.0 0.01 0.55 0.54 99 969.7
20260503210116 61 180 1.0 1.0 0.01 0.55 0.54 99 969.7
20260503205616 61 185 1.0 1.0 0.01 0.55 0.54 99 969.7
20260503205022 61 163 1.0 1.0 0.01 0.55 0.54 99 969.5
20260503204522 60 180 0.0 0.0 0.01 0.55 0.54 99 969.5
20260503204022 60 174 0.0 0.0 0.01 0.55 0.54 99 969.5
20260503203521 60 212 0.0 0.0 0.02 0.55 0.54 99 969.7
20260503203021 60 145 0.0 0.0 0.02 0.55 0.54 99 969.7
20260503202521 60 127 1.0 1.0 0.02 0.55 0.54 99 969.8
20260503202021 60 147 1.0 1.0 0.02 0.55 0.54 99 969.8
20260503201520 60 270 1.0 1.0 0.01 0.54 0.53 99 969.7
20260503201020 60 224 1.0 1.0 0.03 0.54 0.53 99 969.6
20260503200522 60 279 2.0 2.0 0.03 0.54 0.53 99 969.6
20260503200022 60 332 2.0 2.0 0.05 0.54 0.53 99 969.7
20260503195522 60 300 2.0 2.0 0.06 0.54 0.53 99 969.7
20260503195021 60 211 0.0 0.0 0.10 0.54 0.53 99 970.1
20260503194521 60 202 0.0 0.0 0.12 0.54 0.53 99 970.1
20260503194021 60 276 1.0 1.0 0.14 0.54 0.53 99 970.1
20260503193521 60 346 3.0 3.0 0.15 0.53 0.52 99 969.9
20260503193020 60 258 1.0 1.0 0.18 0.53 0.52 99 969.9
20260503192520 60 352 2.0 2.0 0.24 0.53 0.52 99 970.2
20260503192022 60 279 1.0 1.0 0.27 0.53 0.52 99 970.2
20260503191522 60 180 0.0 0.0 0.29 0.53 0.52 99 970.2
20260503191022 60 327 1.0 1.0 0.29 0.51 0.50 99 970.6
20260503190521 60 8 2.0 2.0 0.30 0.51 0.50 99 970.6
20260503190021 60 338 1.0 2.0 0.29 0.49 0.48 99 970.3
20260503185521 60 219 0.0 0.0 0.29 0.48 0.47 99 970.3
20260503185021 60 141 2.0 3.0 0.27 0.44 0.43 99 971.0
20260503184521 60 139 2.0 2.0 0.26 0.42 0.41 99 971.0
20260503184020 60 99 3.0 5.0 0.26 0.40 0.39 99 971.0
20260503183522 60 144 2.0 3.0 0.25 0.38 0.37 99 971.4
20260503183022 60 159 2.0 3.0 0.23 0.35 0.34 99 971.4
20260503182522 60 100 2.0 2.0 0.18 0.29 0.28 99 971.5
20260503182022 60 13 0.0 2.0 0.16 0.26 0.25 99 971.5
20260503181521 60 95 2.0 2.0 0.15 0.24 0.23 99 971.5
20260503181021 60 68 2.0 2.0 0.14 0.22 0.21 98 971.9
20260503180521 60 148 2.0 5.0 0.14 0.21 0.20 98 971.9
20260503180021 60 158 2.0 2.0 0.14 0.20 0.19 98 972.1
20260503175521 60 118 2.0 2.0 0.14 0.19 0.18 98 972.1
20260503175022 60 124 2.0 2.0 0.12 0.17 0.16 98 972.5
20260503174522 60 106 1.0 1.0 0.12 0.16 0.15 98 972.5
20260503174022 60 202 0.0 0.0 0.11 0.14 0.13 97 972.5
20260503173522 60 202 0.0 0.0 0.10 0.13 0.12 97 972.6
20260503173021 60 197 0.0 0.0 0.09 0.12 0.11 97 972.6
20260503172521 60 148 1.0 2.0 0.09 0.11 0.10 98 972.8
20260503172021 60 150 1.0 1.0 0.08 0.10 0.09 98 972.8
20260503171521 60 116 2.0 2.0 0.07 0.09 0.08 97 972.8
20260503171021 60 258 0.0 0.0 0.06 0.08 0.07 96 972.9
20260503170522 60 180 0.0 0.0 0.05 0.07 0.06 96 972.9